TimeCDT,TemperatureF,Dew PointF,Humidity,Sea Level PressureIn,VisibilityMPH,Wind Direction,Wind SpeedMPH,Gust SpeedMPH,PrecipitationIn,Events,Conditions,WindDirDegrees,DateUTC
12:53 AM,34.0,25.0,70,30.14,10.0,WNW,5.8,-,N/A,,Overcast,290,2013-10-24 05:53:00
1:53 AM,34.0,27.0,75,30.15,10.0,West,6.9,-,N/A,,Overcast,270,2013-10-24 06:53:00
2:53 AM,34.0,27.0,75,30.16,10.0,WNW,13.8,-,N/A,,Overcast,300,2013-10-24 07:53:00
3:53 AM,34.0,27.0,75,30.17,10.0,WNW,13.8,-,N/A,,Mostly Cloudy,300,2013-10-24 08:53:00
4:53 AM,33.1,26.1,75,30.19,10.0,NW,12.7,-,N/A,,Overcast,310,2013-10-24 09:53:00
5:53 AM,30.9,24.1,76,30.21,10.0,NW,12.7,-,N/A,,Clear,310,2013-10-24 10:53:00
6:53 AM,28.9,21.9,75,30.24,10.0,NW,11.5,-,N/A,,Clear,320,2013-10-24 11:53:00
7:53 AM,27.0,21.9,81,30.27,10.0,NW,9.2,-,N/A,,Clear,310,2013-10-24 12:53:00
8:53 AM,30.0,21.9,72,30.29,10.0,NW,13.8,-,N/A,,Clear,320,2013-10-24 13:53:00
9:53 AM,34.0,21.9,61,30.31,10.0,NW,13.8,-,N/A,,Partly Cloudy,320,2013-10-24 14:53:00
10:53 AM,37.9,23.0,55,30.32,10.0,NNW,13.8,-,N/A,,Clear,330,2013-10-24 15:53:00
11:53 AM,41.0,24.1,51,30.32,10.0,NNW,11.5,-,N/A,,Mostly Cloudy,340,2013-10-24 16:53:00
12:53 PM,42.1,25.0,51,30.32,10.0,NW,16.1,21.9,N/A,,Overcast,310,2013-10-24 17:53:00
1:53 PM,41.0,26.1,55,30.31,10.0,NNW,12.7,23.0,N/A,,Mostly Cloudy,330,2013-10-24 18:53:00
2:53 PM,43.0,25.0,49,30.31,10.0,NNW,13.8,26.5,N/A,,Mostly Cloudy,340,2013-10-24 19:53:00
3:53 PM,45.0,24.1,44,30.31,10.0,NNW,13.8,24.2,N/A,,Mostly Cloudy,330,2013-10-24 20:53:00
4:53 PM,43.0,25.0,49,30.32,10.0,NNW,6.9,-,N/A,,Overcast,330,2013-10-24 21:53:00
5:53 PM,42.1,26.1,53,30.32,10.0,NW,6.9,-,N/A,,Overcast,320,2013-10-24 22:53:00
6:53 PM,37.0,26.1,65,30.34,10.0,Calm,Calm,-,N/A,,Clear,0,2013-10-24 23:53:00
7:53 PM,36.0,25.0,64,30.35,10.0,Calm,Calm,-,N/A,,Clear,0,2013-10-25 00:53:00
8:53 PM,32.0,25.0,75,30.36,10.0,West,3.5,-,N/A,,Clear,260,2013-10-25 01:53:00
9:53 PM,32.0,26.1,79,30.37,10.0,WSW,3.5,-,N/A,,Mostly Cloudy,250,2013-10-25 02:53:00
10:53 PM,30.0,26.1,85,30.37,10.0,WSW,3.5,-,N/A,,Clear,240,2013-10-25 03:53:00
11:53 PM,30.0,26.1,85,30.37,10.0,Calm,Calm,-,N/A,,Clear,0,2013-10-25 04:53:00